Snowfall_Accumulation
0.0 0.0 0.0 0.0 0.0 0.0 0.0 0.0 0.0 0.0 0.0 0.0 0.0 0.0 0.0 0.0 0.0 0.0 0.0 0.0 0.0 0.0 0.0 0.0 0.0 0.0 0.0 0.0 0.0 0.0 0.0 0.0 0.0 0.0 0.0 0.0 0.0 0.0
0.0 0.0 0.0 0.0 0.0 0.0 0.0 0.0 0.0 0.0 0.0 0.0 0.0 0.0 0.0 0.0 0.0 0.0 0.0 0.0 0.0 0.0 0.0 0.0 0.0 0.0 0.0 0.0 0.0 0.0 0.0 0.0 0.0 0.0 0.0 0.0 0.0 0.0
0.0 0.0 0.0 0.0 0.0 0.0 0.0 0.0 0.1 0.4 0.0 0.2 0.1 0.5 0.3 0.0 0.0 0.0 0.0 0.0 0.0 0.0 0.0 0.0 0.0 0.0 0.0 0.0 0.0 0.0 0.0 0.0 0.0 0.0 0.0 0.0 0.0 0.0
0.0 0.0 0.0 0.0 0.0 0.0 0.0 0.2 0.6 0.3 0.2 0.9 0.6 0.3 0.1 0.0 0.0 0.0 0.0 0.1 0.0 0.0 0.0 0.0 0.0 0.0 0.0 0.0 0.0 0.0 0.0 0.0 0.0 0.0 0.0 0.0 0.0 0.0
0.0 0.0 0.0 0.0 0.0 0.0 0.9 0.6 0.2 0.7 0.5 0.6 0.2 0.0 0.0 0.6 0.0 0.0 0.0 0.0 0.0 0.0 0.0 0.0 0.0 0.0 0.0 0.0 0.0 0.0 0.0 0.0 0.0 0.0 0.0 0.0 0.0 0.0
0.0 0.0 0.0 0.3 0.2 0.6 0.4 0.6 0.3 0.5 0.2 0.2 0.4 0.7 0.3 0.0 0.2 0.0 0.0 0.0 0.0 0.0 0.0 0.0 0.0 0.0 0.0 0.0 0.0 0.0 0.0 0.0 0.0 0.0 0.0 0.0 0.0 0.0
0.0 1.6 1.3 1.0 0.5 0.7 0.5 0.2 0.2 0.1 1.3 2.9 2.2 2.2 0.1 0.0 0.0 0.0 0.0 0.0 0.2 0.0 0.0 0.0 0.0 0.0 0.0 0.0 0.0 0.0 0.0 0.0 0.0 0.0 0.0 0.0 0.0 0.0
2.3 2.2 1.1 0.4 0.2 0.0 0.0 0.0 0.0 0.5 3.0 4.5 3.0 0.5 0.0 0.0 0.0 0.1 2.0 2.1 1.7 0.0 0.0 0.1 0.0 0.0 0.0 0.0 0.0 0.0 0.0 0.0 0.0 0.0 0.0 0.0 0.0 0.0
1.3 0.8 0.7 0.1 0.2 0.1 0.0 0.0 0.3 0.3 0.5 0.3 0.3 0.2 0.3 0.1 3.0 3.6 1.4 2.1 1.2 0.0 0.2 0.4 0.0 0.0 0.0 0.0 0.0 0.0 0.0 0.0 0.0 0.0 0.0 0.0 0.0 0.0
0.2 0.1 0.0 0.0 0.0 0.1 0.1 1.8 0.9 0.0 0.0 0.0 0.0 0.2 0.7 0.2 0.3 0.7 1.0 1.1 0.5 0.0 0.0 2.4 0.0 0.1 0.0 0.0 0.0 0.0 0.0 0.0 0.0 0.0 0.0 0.0 0.0 0.0
0.0 0.0 0.0 0.1 0.0 0.0 1.2 1.3 0.1 0.0 0.0 0.0 0.2 0.1 0.0 0.0 0.0 1.6 3.3 3.8 2.4 0.1 0.0 1.2 0.4 0.2 0.0 0.0 0.0 0.0 0.0 0.0 0.0 0.0 0.0 0.0 0.0 0.0
0.0 0.0 0.0 0.1 0.0 0.4 0.4 0.1 0.7 0.0 1.0 0.6 0.0 0.0 0.0 0.0 0.0 0.2 4.0 12.0 5.7 3.7 0.0 4.4 1.2 1.2 5.6 0.0 0.0 0.0 0.0 0.0 0.0 0.0 0.0 0.1 0.0 0.4
0.5 0.0 0.0 0.1 0.5 0.0 0.0 0.0 0.2 0.1 0.1 0.0 0.0 0.0 0.0 0.0 0.1 0.1 1.6 9.9 15.4 9.4 0.0 8.8 10.8 2.3 8.1 3.6 2.5 2.5 1.7 1.1 1.5 2.0 1.9 1.2 0.9 1.0
0.2 0.0 0.1 0.8 0.0 0.0 0.0 0.1 0.1 0.1 0.0 0.1 0.1 0.2 0.2 0.3 0.2 0.3 0.4 1.7 3.6 8.9 3.2 4.6 19.0 6.9 12.6 8.9 5.0 5.7 4.4 4.8 7.5 8.0 9.3 2.5 1.0 0.6
0.1 0.5 0.5 0.0 0.0 0.0 0.0 0.0 0.0 0.0 0.3 1.7 1.1 0.5 0.2 0.1 0.4 0.6 0.8 1.3 2.0 2.9 3.8 4.1 9.5 9.7 12.9 12.7 8.0 5.1 7.4 6.2 6.1 7.7 6.4 6.5 5.0 3.2
0.6 1.2 0.0 0.0 0.0 0.0 0.0 0.0 0.0 0.1 1.1 2.9 2.5 0.7 0.1 0.5 0.8 1.4 4.6 3.4 5.4 3.3 3.6 4.8 7.0 9.2 11.3 6.6 8.2 7.3 5.9 10.9 8.1 7.3 5.9 6.7 2.0 1.4
0.3 0.0 0.0 0.0 0.0 0.0 0.0 0.0 0.0 0.0 0.9 0.9 2.3 2.2 0.8 0.7 1.3 2.0 5.4 7.4 9.8 6.9 6.3 5.0 3.8 3.5 4.3 5.8 7.4 4.9 6.1 7.0 9.0 8.3 6.1 8.2 5.4 1.1
0.0 0.0 0.1 0.2 0.2 0.1 0.1 0.1 0.0 0.1 0.9 2.6 2.3 2.1 4.1 3.7 4.0 3.8 5.9 8.7 9.7 7.0 7.7 6.3 4.7 3.5 3.4 3.5 4.1 9.1 7.0 8.3 8.9 6.9 5.2 7.4 7.7 3.8
0.0 0.3 0.4 0.2 0.1 0.1 0.2 0.8 1.1 0.5 2.1 4.0 4.5 4.9 5.6 4.6 4.3 5.8 6.5 7.2 7.9 6.4 5.3 3.7 5.0 8.5 10.2 4.7 3.4 3.5 13.5 10.1 6.6 5.6 3.6 4.0 6.8 5.3
0.2 0.4 0.3 0.2 0.1 0.6 0.9 1.8 2.2 1.4 2.3 3.7 5.4 6.1 7.0 8.5 6.9 7.1 6.6 8.5 8.1 3.9 1.6 0.6 1.2 6.7 15.4 12.9 10.0 7.1 4.5 8.9 8.0 8.0 6.4 4.1 3.4 0.1
0.4 0.3 0.2 0.2 0.6 1.2 1.3 2.3 2.6 4.9 7.2 8.6 6.0 7.0 6.8 10.0 7.6 5.2 6.4 3.8 2.8 2.4 2.1 0.2 0.7 1.1 2.5 4.2 5.6 3.7 5.3 3.0 2.8 7.7 7.0 5.9 4.1 2.1
0.2 0.2 0.2 0.2 0.9 1.9 2.6 2.7 3.6 3.5 5.2 5.5 6.6 7.5 7.8 8.4 9.6 6.6 3.9 4.5 2.2 2.2 2.0 0.2 0.0 0.9 1.9 4.6 4.3 2.3 2.5 2.1 1.2 0.7 0.9 3.3 10.4 15.0
0.3 0.3 0.3 0.8 1.3 2.2 2.8 3.2 4.2 4.7 5.8 7.9 7.9 7.9 7.6 7.5 4.0 3.3 3.2 3.0 3.4 3.2 1.6 1.3 0.1 0.2 0.6 2.4 2.7 2.3 0.9 0.7 0.7 0.9 2.5 0.9 1.0 1.4